FW2977 Weather Reports


Display with metric or nautical units.
time (UTC)temp
F
wind
direction
speed
MPH
gust
MPH
rain 1hr
in
rain 24hr
in
rain mn
in
humidity
%
barometer
mb
20260510174534 57 268 2.0 6.0 0.00 0.11 0.02 62 960.7
20260510173031 57 255 3.0 5.0 0.00 0.11 0.02 65 960.5
20260510171629 56 250 2.0 6.0 0.00 0.11 0.02 68 960.7
20260510170031 54 264 2.0 4.0 0.00 0.11 0.02 77 960.9
20260510164523 54 242 2.0 3.0 0.00 0.13 0.02 78 960.8
20260510163020 52 247 1.0 4.0 0.00 0.13 0.02 80 960.8
20260510161523 53 232 1.0 4.0 0.00 0.13 0.02 81 960.6
20260510160018 53 259 1.0 4.0 0.00 0.13 0.02 81 960.4
20260510154517 52 258 2.0 4.0 0.00 0.14 0.02 81 960.6
20260510153016 51 244 1.0 3.0 0.00 0.14 0.02 81 960.6
20260510151511 51 235 1.0 4.0 0.00 0.14 0.02 83 960.3
20260510150009 51 236 2.0 4.0 0.00 0.18 0.02 83 960.1
20260510144507 49 254 2.0 5.0 0.00 0.18 0.02 86 960.0
20260510143002 49 258 1.0 3.0 0.00 0.18 0.02 86 959.9
20260510141502 49 265 1.0 3.0 0.00 0.18 0.02 86 959.7
20260510140059 49 269 2.0 4.0 0.00 0.18 0.02 85 959.5
20260510134600 51 244 1.0 4.0 0.00 0.21 0.02 92 959.3
20260510133054 51 257 2.0 4.0 0.00 0.21 0.02 92 959.0
20260510131554 51 252 3.0 5.0 0.00 0.21 0.02 92 959.0
20260510130053 51 217 2.0 4.0 0.00 0.21 0.02 92 959.0
20260510124601 51 200 1.0 3.0 0.00 0.28 0.02 92 958.8
20260510123049 51 177 0.0 4.0 0.00 0.28 0.02 92 958.6
20260510121545 50 173 1.0 5.0 0.00 0.28 0.02 93 958.4
20260510120044 50 162 1.0 4.0 0.00 0.28 0.02 93 958.3
20260510114540 49 163 1.0 5.0 0.00 0.32 0.02 93 958.0
20260510113036 49 154 2.0 5.0 0.00 0.32 0.02 94 957.9
20260510111534 49 139 2.0 4.0 0.00 0.32 0.02 94 957.5
20260510110039 49 104 3.0 6.0 0.00 0.32 0.02 94 957.3
20260510104532 48 103 3.0 6.0 0.00 0.41 0.02 94 956.7
20260510103030 48 113 2.0 6.0 0.00 0.41 0.02 94 956.7
20260510101528 48 103 3.0 6.0 0.00 0.41 0.02 94 956.7
20260510100026 48 101 2.0 7.0 0.00 0.41 0.02 94 956.4
20260510094542 48 112 3.0 4.0 0.00 0.41 0.02 94 956.1
20260510093026 48 108 3.0 7.0 0.00 0.41 0.02 94 956.2
20260510091527 48 143 2.0 4.0 0.00 0.41 0.02 94 956.0
20260510090025 48 91 2.0 6.0 0.00 0.41 0.02 94 955.7
20260510084525 48 104 3.0 8.0 0.00 0.42 0.02 94 955.8
20260510083023 48 91 5.0 9.0 0.00 0.42 0.02 94 955.8
20260510081524 47 110 5.0 8.0 0.00 0.42 0.02 94 955.6
20260510080022 48 82 6.0 9.0 0.00 0.42 0.02 93 955.4
20260510074521 48 87 5.0 7.0 0.00 0.43 0.02 93 955.3
20260510073019 48 94 4.0 7.0 0.00 0.43 0.02 93 955.2
20260510071517 48 91 7.0 12.0 0.00 0.43 0.02 93 955.4
20260510070022 49 79 10.0 15.0 0.00 0.43 0.02 93 955.2
20260510064515 48 91 10.0 13.0 0.00 0.45 0.02 93 955.2
20260510063016 49 101 7.0 15.0 0.00 0.45 0.02 93 955.2
20260510061512 49 98 9.0 16.0 0.01 0.45 0.02 94 955.4
20260510060010 48 115 9.0 13.0 0.01 0.45 0.02 93 955.8
20260510054506 49 90 8.0 10.0 0.02 0.45 0.02 93 955.9
20260510053006 49 124 4.0 7.0 0.01 0.44 0.01 93 956.7
20260510051600 49 107 4.0 6.0 0.01 0.44 0.01 93 956.8
20260510050058 49 179 0.0 3.0 0.01 0.44 0.01 93 957.0
20260510044558 49 244 1.0 4.0 0.00 0.43 0.00 93 957.2
20260510043102 49 244 3.0 8.0 0.00 0.43 0.00 94 957.2
20260510041554 49 244 4.0 8.0 0.00 0.43 0.00 94 956.9
20260510040050 49 242 3.0 11.0 0.00 0.43 0.00 94 956.4
20260510034549 49 108 7.0 11.0 0.00 0.43 0.43 94 955.4
20260510033058 49 104 6.0 10.0 0.00 0.43 0.43 93 955.3
20260510031551 49 94 7.0 10.0 0.00 0.43 0.43 93 955.4
20260510030049 50 144 6.0 14.0 0.00 0.43 0.43 93 955.4
20260510024549 50 94 12.0 19.0 0.00 0.43 0.43 93 955.1
20260510023046 50 81 12.0 17.0 0.00 0.43 0.43 93 954.8
20260510021550 50 80 10.0 15.0 0.00 0.43 0.43 93 954.8
20260510020044 50 92 11.0 18.0 0.00 0.43 0.43 93 954.9
20260510014545 50 94 12.0 19.0 0.00 0.43 0.43 93 954.8
20260510013049 50 82 10.0 16.0 0.00 0.43 0.43 93 954.9
20260510011549 51 94 9.0 14.0 0.00 0.43 0.43 92 954.6
20260510010041 51 88 9.0 14.0 0.00 0.43 0.43 92 954.7
20260510004544 51 86 9.0 13.0 0.00 0.43 0.43 92 954.5
20260510003041 51 84 9.0 13.0 0.00 0.43 0.43 91 954.3
20260510001543 52 98 7.0 13.0 0.00 0.43 0.43 90 954.3
20260510000048 52 124 8.0 11.0 0.00 0.43 0.43 90 954.4
20260509234539 52 111 7.0 10.0 0.00 0.43 0.43 90 954.2
20260509233038 52 146 6.0 11.0 0.00 0.43 0.43 89 953.9
20260509231540 53 124 5.0 12.0 0.00 0.43 0.43 89 953.7
20260509230037 53 99 8.0 13.0 0.00 0.43 0.43 89 954.0
20260509224535 53 158 3.0 10.0 0.01 0.43 0.43 89 954.1
20260509223034 53 140 5.0 11.0 0.01 0.43 0.43 89 954.0
20260509221533 53 141 5.0 14.0 0.01 0.43 0.43 90 953.8
20260509220033 53 172 6.0 15.0 0.01 0.43 0.43 90 954.0
20260509214529 53 150 6.0 16.0 0.00 0.42 0.42 91 954.1
20260509213032 52 138 5.0 11.0 0.00 0.42 0.42 93 954.0
20260509211524 51 148 4.0 12.0 0.00 0.42 0.42 95 954.1
20260509210023 50 155 4.0 9.0 0.00 0.42 0.42 95 954.5
20260509204521 50 100 4.0 8.0 0.00 0.42 0.42 95 954.6
20260509203019 50 130 3.0 7.0 0.00 0.42 0.42 95 954.6
20260509201518 50 106 3.0 9.0 0.01 0.42 0.42 95 954.6
20260509200017 49 167 5.0 9.0 0.02 0.42 0.42 95 954.9
20260509194517 50 131 4.0 8.0 0.05 0.42 0.42 95 954.9
20260509193025 50 128 4.0 9.0 0.07 0.42 0.42 95 955.0
20260509191516 50 134 3.0 8.0 0.07 0.41 0.41 95 955.0
20260509190114 50 143 4.0 9.0 0.06 0.40 0.40 95 955.3
20260509184527 49 130 5.0 9.0 0.03 0.37 0.37 94 955.2
20260509183008 49 113 6.0 9.0 0.01 0.35 0.35 94 955.2
20260509181505 49 121 3.0 9.0 0.00 0.34 0.34 94 955.2
20260509180002 49 106 6.0 13.0 0.00 0.34 0.34 94 955.2